User: anonymous   Login
Location: Unspecified
(0.0000°N, 0.0000°E)
Time: 09:17:10
(UTC+00:00)
Language:

PRISMA - Orbit

View from above orbital plane
View from above orbital plane
View from above satellite
View from above satellite

Ground track
Ground track

The orbit data is extracted from the following two-line orbital elements,

1 36599U 10028B   18109.85481677 +.00000079 +00000-0 +28364-4 0  9991
2 36599 098.3541 323.2367 0057014 099.8445 260.9193 14.55991117415234
Epoch (UTC): 19 April 2018 20:30:56
Eccentricity: 0.0057014
inclination: 98.3541°
perigee height: 666 km
apogee height: 746 km
right ascension of ascending node: 323.2367°
argument of perigee: 99.8445°
revolutions per day: 14.55991117
mean anomaly at epoch: 260.9193°
orbit number at epoch: 41523

The dashed part of the orbit path shows where the satellite is in the earth's shadow,  

DLR